owner,sensor,date,latitude,longitude,vertical_datum,wind_speed,wind_to_direction,wind_speed_of_gust,qcFlag 
TABS,ioos:station:wmo:42046:1,2009-09-01T00:00:00Z,27.8903,-94.0367,4.0,3.793481251,23.45614456,4.68,'11111222,11111222,11111222' 
TABS,ioos:station:wmo:42046:1,2009-09-01T00:30:00Z,27.8903,-94.0367,4.0,2.741860682,27.59281198,3.95,'11111222,11111222,11111222' 
TABS,ioos:station:wmo:42046:1,2009-09-01T01:00:00Z,27.8903,-94.0367,4.0,4.398147337,53.59875291,5.66,'11111222,11111222,11111222' 
TABS,ioos:station:wmo:42046:1,2009-09-01T01:30:00Z,27.8903,-94.0367,4.0,5.412651845,58.60019502,6.45,'11111222,11111222,11111222' 
TABS,ioos:station:wmo:42046:1,2009-09-01T02:00:00Z,27.8903,-94.0367,4.0,5.544231236,70.616914,6.39,'11111222,11111222,11111222' 
TABS,ioos:station:wmo:42046:1,2009-09-01T02:30:00Z,27.8903,-94.0367,4.0,5.4143513,107.6321693,6.44,'11111222,11111222,11111222' 
TABS,ioos:station:wmo:42046:1,2009-09-01T03:00:00Z,27.8903,-94.0367,4.0,4.986993082,108.1083417,5.9,'11111222,11111222,11111222' 
TABS,ioos:station:wmo:42046:1,2009-09-01T03:30:00Z,27.8903,-94.0367,4.0,4.287889924,123.3939277,5.43,'11111222,11111222,11111222' 
TABS,ioos:station:wmo:42046:1,2009-09-01T04:00:00Z,27.8903,-94.0367,4.0,3.92318748,102.5133587,4.97,'11111222,11111222,11111222' 
TABS,ioos:station:wmo:42046:1,2009-09-01T04:30:00Z,27.8903,-94.0367,4.0,3.633689585,107.7871007,4.73,'11111222,11111222,11111222' 
TABS,ioos:station:wmo:42046:1,2009-09-01T05:00:00Z,27.8903,-94.0367,4.0,3.34462255,112.5016359,4.33,'11111222,11111222,11111222' 
TABS,ioos:station:wmo:42046:1,2009-09-01T05:30:00Z,27.8903,-94.0367,4.0,3.236309627,121.4802681,4.33,'11111222,11111222,11111222' 
TABS,ioos:station:wmo:42046:1,2009-09-01T06:00:00Z,27.8903,-94.0367,4.0,3.085271463,120.8048624,3.85,'11111222,11111222,11111222' 
TABS,ioos:station:wmo:42046:1,2009-09-01T06:30:00Z,27.8903,-94.0367,4.0,2.964675362,110.3302225,3.95,'11111222,11111222,11111222' 
TABS,ioos:station:wmo:42046:1,2009-09-01T07:00:00Z,27.8903,-94.0367,4.0,3.628002205,126.9334028,4.67,'11111222,11111222,11111222' 
TABS,ioos:station:wmo:42046:1,2009-09-01T07:30:00Z,27.8903,-94.0367,4.0,3.541539213,130.0751823,4.89,'11111222,11111222,11111222' 
TABS,ioos:station:wmo:42046:1,2009-09-01T08:00:00Z,27.8903,-94.0367,4.0,3.518096076,126.446793,4.45,'11111222,11111222,11111222' 
TABS,ioos:station:wmo:42046:1,2009-09-01T08:30:00Z,27.8903,-94.0367,4.0,3.291944714,108.6004433,4.14,'11111222,11111222,11111222' 
TABS,ioos:station:wmo:42046:1,2009-09-01T09:00:00Z,27.8903,-94.0367,4.0,2.82596886,96.09431092,4.09,'11111222,11111222,11111222' 
TABS,ioos:station:wmo:42046:1,2009-09-01T09:30:00Z,27.8903,-94.0367,4.0,2.964405505,77.13537445,3.73,'11111222,11111222,11111222' 
TABS,ioos:station:wmo:42046:1,2009-09-01T10:00:00Z,27.8903,-94.0367,4.0,2.644844041,86.53135793,3.33,'11111222,11111222,11111222' 
TABS,ioos:station:wmo:42046:1,2009-09-01T10:30:00Z,27.8903,-94.0367,4.0,2.020544481,99.97552431,2.98,'11111222,11111222,11111222' 
TABS,ioos:station:wmo:42046:1,2009-09-01T11:00:00Z,27.8903,-94.0367,4.0,2.231882613,95.91535345,3.31,'11111222,11111222,11111222' 
TABS,ioos:station:wmo:42046:1,2009-09-01T11:30:00Z,27.8903,-94.0367,4.0,1.974284681,93.77587791,2.92,'11111222,11111222,11111222' 
TABS,ioos:station:wmo:42046:1,2009-09-01T12:00:00Z,27.8903,-94.0367,4.0,4.219964455,65.49949826,7.91,'11111222,11111222,11111222' 
TABS,ioos:station:wmo:42046:1,2009-09-01T12:30:00Z,27.8903,-94.0367,4.0,1.834611676,355.9364331,2.71,'11111222,11111222,11111222' 
TABS,ioos:station:wmo:42046:1,2009-09-01T13:00:00Z,27.8903,-94.0367,4.0,3.529320048,43.73685858,4.18,'11111222,11111222,11111222' 
TABS,ioos:station:wmo:42046:1,2009-09-01T13:30:00Z,27.8903,-94.0367,4.0,2.635014231,50.38898347,3.58,'11111222,11111222,11111222' 
TABS,ioos:station:wmo:42046:1,2009-09-01T14:00:00Z,27.8903,-94.0367,4.0,2.609310254,45.46549231,3.61,'11111222,11111222,11111222' 
TABS,ioos:station:wmo:42046:1,2009-09-01T14:30:00Z,27.8903,-94.0367,4.0,4.006007988,53.01534815,4.78,'11111222,11111222,11111222' 
TABS,ioos:station:wmo:42046:1,2009-09-01T15:00:00Z,27.8903,-94.0367,4.0,5.887758487,73.31901572,7.1,'11111222,11111222,11111222' 
TABS,ioos:station:wmo:42046:1,2009-09-01T15:30:00Z,27.8903,-94.0367,4.0,5.241068593,77.66052066,6.46,'11111222,11111222,11111222' 
TABS,ioos:station:wmo:42046:1,2009-09-01T16:00:00Z,27.8903,-94.0367,4.0,4.295357959,82.6429494,5.2,'11111222,11111222,11111222' 
TABS,ioos:station:wmo:42046:1,2009-09-01T16:30:00Z,27.8903,-94.0367,4.0,4.603314024,82.1335291,5.82,'11111222,11111222,11111222' 
TABS,ioos:station:wmo:42046:1,2009-09-01T17:00:00Z,27.8903,-94.0367,4.0,4.775981575,70.42649902,6.32,'11111222,11111222,11111222' 
TABS,ioos:station:wmo:42046:1,2009-09-01T17:30:00Z,27.8903,-94.0367,4.0,5.227666784,72.29252808,6.2,'11111222,11111222,11111222' 
TABS,ioos:station:wmo:42046:1,2009-09-01T18:00:00Z,27.8903,-94.0367,4.0,5.101372364,65.44413914,6.2,'11111222,11111222,11111222' 
TABS,ioos:station:wmo:42046:1,2009-09-01T18:30:00Z,27.8903,-94.0367,4.0,5.660388679,57.99427072,6.67,'11111222,11111222,11111222' 
TABS,ioos:station:wmo:42046:1,2009-09-01T19:00:00Z,27.8903,-94.0367,4.0,5.662552428,54.8501444,6.99,'11111222,11111222,11111222' 
TABS,ioos:station:wmo:42046:1,2009-09-01T19:30:00Z,27.8903,-94.0367,4.0,5.704191441,58.62246392,7.03,'11111222,11111222,11111222' 
TABS,ioos:station:wmo:42046:1,2009-09-01T20:00:00Z,27.8903,-94.0367,4.0,6.370031397,62.10704934,7.34,'11111222,11111222,11111222' 
TABS,ioos:station:wmo:42046:1,2009-09-01T20:30:00Z,27.8903,-94.0367,4.0,5.798275606,57.68003815,6.83,'11111222,11111222,11111222' 
TABS,ioos:station:wmo:42046:1,2009-09-01T21:00:00Z,27.8903,-94.0367,4.0,6.0488098,69.07772849,7.36,'11111222,11111222,11111222' 
TABS,ioos:station:wmo:42046:1,2009-09-01T21:30:00Z,27.8903,-94.0367,4.0,6.159561673,67.9736684,7.67,'11111222,11111222,11111222' 
TABS,ioos:station:wmo:42046:1,2009-09-01T22:00:00Z,27.8903,-94.0367,4.0,5.831372051,66.55591545,7.31,'11111222,11111222,11111222' 
TABS,ioos:station:wmo:42046:1,2009-09-01T22:30:00Z,27.8903,-94.0367,4.0,5.51757193,66.50106836,6.9,'11111222,11111222,11111222' 
TABS,ioos:station:wmo:42046:1,2009-09-01T23:00:00Z,27.8903,-94.0367,4.0,5.103929858,67.05162675,6.54,'11111222,11111222,11111222' 
TABS,ioos:station:wmo:42046:1,2009-09-01T23:30:00Z,27.8903,-94.0367,4.0,4.890695247,60.34195314,6.09,'11111222,11111222,11111222' 
TABS,ioos:station:wmo:42046:1,2009-09-02T00:00:00Z,27.8903,-94.0367,4.0,4.523825815,56.90676428,5.51,'11111222,11111222,11111222' 
TABS,ioos:station:wmo:42046:1,2009-09-02T00:30:00Z,27.8903,-94.0367,4.0,4.871796383,57.74494398,6.06,'11111222,11111222,11111222' 
TABS,ioos:station:wmo:42046:1,2009-09-02T01:00:00Z,27.8903,-94.0367,4.0,5.284590807,46.76325011,6.31,'11111222,11111222,11111222' 
TABS,ioos:station:wmo:42046:1,2009-09-02T01:30:00Z,27.8903,-94.0367,4.0,5.155657087,61.24727789,6.23,'11111222,11111222,11111222' 
TABS,ioos:station:wmo:42046:1,2009-09-02T02:00:00Z,27.8903,-94.0367,4.0,5.09918621,59.86453303,6.2,'11111222,11111222,11111222' 
TABS,ioos:station:wmo:42046:1,2009-09-02T02:30:00Z,27.8903,-94.0367,4.0,5.270341545,52.4774735,6.49,'11111222,11111222,11111222' 
TABS,ioos:station:wmo:42046:1,2009-09-02T03:00:00Z,27.8903,-94.0367,4.0,5.151048437,50.59287119,6.22,'11111222,11111222,11111222' 
TABS,ioos:station:wmo:42046:1,2009-09-02T03:30:00Z,27.8903,-94.0367,4.0,4.884199013,33.98259846,5.85,'11111222,11111222,11111222' 
TABS,ioos:station:wmo:42046:1,2009-09-02T04:00:00Z,27.8903,-94.0367,4.0,4.617845818,45.78931396,6.11,'11111222,11111222,11111222' 
TABS,ioos:station:wmo:42046:1,2009-09-02T04:30:00Z,27.8903,-94.0367,4.0,4.931227028,54.4079574,5.99,'11111222,11111222,11111222' 
TABS,ioos:station:wmo:42046:1,2009-09-02T05:00:00Z,27.8903,-94.0367,4.0,4.656575995,41.08144461,5.75,'11111222,11111222,11111222' 
TABS,ioos:station:wmo:42046:1,2009-09-02T05:30:00Z,27.8903,-94.0367,4.0,5.084899212,48.18834619,6.07,'11111222,11111222,11111222' 
TABS,ioos:station:wmo:42046:1,2009-09-02T06:00:00Z,27.8903,-94.0367,4.0,5.022071286,46.45193889,6.22,'11111222,11111222,11111222' 
TABS,ioos:station:wmo:42046:1,2009-09-02T06:30:00Z,27.8903,-94.0367,4.0,5.132815991,65.48177548,6.62,'11111222,11111222,11111222' 
TABS,ioos:station:wmo:42046:1,2009-09-02T07:00:00Z,27.8903,-94.0367,4.0,4.295404521,67.55419808,5.34,'11111222,11111222,11111222' 
TABS,ioos:station:wmo:42046:1,2009-09-02T07:30:00Z,27.8903,-94.0367,4.0,5.89346248,78.2511459,7.55,'11111222,11111222,11111222' 
TABS,ioos:station:wmo:42046:1,2009-09-02T08:00:00Z,27.8903,-94.0367,4.0,5.590939098,71.75911486,6.43,'11111222,11111222,11111222' 
TABS,ioos:station:wmo:42046:1,2009-09-02T08:30:00Z,27.8903,-94.0367,4.0,4.990641241,69.34952256,5.98,'11111222,11111222,11111222' 
TABS,ioos:station:wmo:42046:1,2009-09-02T09:00:00Z,27.8903,-94.0367,4.0,4.305902925,54.83322528,5.53,'11111222,11111222,11111222' 
TABS,ioos:station:wmo:42046:1,2009-09-02T09:30:00Z,27.8903,-94.0367,4.0,4.580392996,53.8803227,5.65,'11111222,11111222,11111222' 
TABS,ioos:station:wmo:42046:1,2009-09-02T10:00:00Z,27.8903,-94.0367,4.0,4.416616352,51.15752068,5.59,'11111222,11111222,11111222' 
TABS,ioos:station:wmo:42046:1,2009-09-02T10:30:00Z,27.8903,-94.0367,4.0,4.433734318,54.73238659,5.7,'11111222,11111222,11111222' 
TABS,ioos:station:wmo:42046:1,2009-09-02T11:00:00Z,27.8903,-94.0367,4.0,4.532824726,58.62401508,6.58,'11111222,11111222,11111222' 
TABS,ioos:station:wmo:42046:1,2009-09-02T11:30:00Z,27.8903,-94.0367,4.0,4.618625337,35.92675212,6.12,'11111222,11111222,11111222' 
TABS,ioos:station:wmo:42046:1,2009-09-02T12:00:00Z,27.8903,-94.0367,4.0,4.112578267,39.57337486,5.21,'11111222,11111222,11111222' 
TABS,ioos:station:wmo:42046:1,2009-09-02T12:30:00Z,27.8903,-94.0367,4.0,3.693304753,49.06184495,5.03,'11111222,11111222,11111222' 
TABS,ioos:station:wmo:42046:1,2009-09-02T13:00:00Z,27.8903,-94.0367,4.0,4.176625432,42.28260753,5.43,'11111222,11111222,11111222' 
TABS,ioos:station:wmo:42046:1,2009-09-02T13:30:00Z,27.8903,-94.0367,4.0,3.818402807,44.78747919,4.98,'11111222,11111222,11111222' 
TABS,ioos:station:wmo:42046:1,2009-09-02T14:00:00Z,27.8903,-94.0367,4.0,3.535265195,48.55456467,5.11,'11111222,11111222,11111222' 
TABS,ioos:station:wmo:42046:1,2009-09-02T14:30:00Z,27.8903,-94.0367,4.0,3.434603325,26.63938226,4.42,'11111222,11111222,11111222' 
TABS,ioos:station:wmo:42046:1,2009-09-02T15:00:00Z,27.8903,-94.0367,4.0,3.185231546,29.94540296,4.07,'11111222,11111222,11111222' 
TABS,ioos:station:wmo:42046:1,2009-09-02T15:30:00Z,27.8903,-94.0367,4.0,3.659412521,28.03537069,4.86,'11111222,11111222,11111222' 
TABS,ioos:station:wmo:42046:1,2009-09-02T16:00:00Z,27.8903,-94.0367,4.0,4.15289056,38.05619081,5.42,'11111222,11111222,11111222' 
TABS,ioos:station:wmo:42046:1,2009-09-02T16:30:00Z,27.8903,-94.0367,4.0,4.514797891,28.43800217,5.9,'11111222,11111222,11111222' 
TABS,ioos:station:wmo:42046:1,2009-09-02T17:00:00Z,27.8903,-94.0367,4.0,3.404717316,28.2206961,4.54,'11111222,11111222,11111222' 
TABS,ioos:station:wmo:42046:1,2009-09-02T17:30:00Z,27.8903,-94.0367,4.0,3.995860358,20.20335746,5.34,'11111222,11111222,11111222' 
TABS,ioos:station:wmo:42046:1,2009-09-02T18:00:00Z,27.8903,-94.0367,4.0,3.608392994,34.04209142,4.99,'11111222,11111222,11111222' 
TABS,ioos:station:wmo:42046:1,2009-09-02T18:30:00Z,27.8903,-94.0367,4.0,4.325840959,20.57128876,5.25,'11111222,11111222,11111222' 
TABS,ioos:station:wmo:42046:1,2009-09-02T19:00:00Z,27.8903,-94.0367,4.0,4.363312962,23.21556795,5.42,'11111222,11111222,11111222' 
TABS,ioos:station:wmo:42046:1,2009-09-02T19:30:00Z,27.8903,-94.0367,4.0,4.808846015,25.23256186,6.15,'11111222,11111222,11111222' 
TABS,ioos:station:wmo:42046:1,2009-09-02T20:00:00Z,27.8903,-94.0367,4.0,5.244702089,20.88822813,6.31,'11111222,11111222,11111222' 
TABS,ioos:station:wmo:42046:1,2009-09-02T20:30:00Z,27.8903,-94.0367,4.0,5.496271463,26.7046375,6.65,'11111222,11111222,11111222' 
TABS,ioos:station:wmo:42046:1,2009-09-02T21:00:00Z,27.8903,-94.0367,4.0,5.47438581,19.19594442,7.03,'11111222,11111222,11111222' 
TABS,ioos:station:wmo:42046:1,2009-09-02T21:30:00Z,27.8903,-94.0367,4.0,5.208886637,21.39262987,6.71,'11111222,11111222,11111222' 
TABS,ioos:station:wmo:42046:1,2009-09-02T22:00:00Z,27.8903,-94.0367,4.0,4.86214973,19.96271381,6.25,'11111222,11111222,11111222' 
TABS,ioos:station:wmo:42046:1,2009-09-02T22:30:00Z,27.8903,-94.0367,4.0,4.200773738,22.53566736,5.95,'11111222,11111222,11111222' 
TABS,ioos:station:wmo:42046:1,2009-09-02T23:00:00Z,27.8903,-94.0367,4.0,5.17117008,23.83847398,6.64,'11111222,11111222,11111222' 
TABS,ioos:station:wmo:42046:1,2009-09-02T23:30:00Z,27.8903,-94.0367,4.0,5.198740232,40.55317315,6.54,'11111222,11111222,11111222' 
TABS,ioos:station:wmo:42046:1,2009-09-03T00:00:00Z,27.8903,-94.0367,4.0,4.119381021,32.60958435,5.59,'11111222,11111222,11111222' 
TABS,ioos:station:wmo:42046:1,2009-09-03T00:30:00Z,27.8903,-94.0367,4.0,4.386262646,37.49661447,5.81,'11111222,11111222,11111222' 
TABS,ioos:station:wmo:42046:1,2009-09-03T01:00:00Z,27.8903,-94.0367,4.0,4.373431147,41.01307879,5.85,'11111222,11111222,11111222' 
TABS,ioos:station:wmo:42046:1,2009-09-03T01:30:00Z,27.8903,-94.0367,4.0,4.032716206,52.04991808,5.32,'11111222,11111222,11111222' 
TABS,ioos:station:wmo:42046:1,2009-09-03T02:00:00Z,27.8903,-94.0367,4.0,4.157691667,59.98128185,5.71,'11111222,11111222,11111222' 
TABS,ioos:station:wmo:42046:1,2009-09-03T02:30:00Z,27.8903,-94.0367,4.0,3.854153604,58.04154434,5.25,'11111222,11111222,11111222' 
TABS,ioos:station:wmo:42046:1,2009-09-03T03:00:00Z,27.8903,-94.0367,4.0,4.150301194,68.07004261,5.55,'11111222,11111222,11111222' 
TABS,ioos:station:wmo:42046:1,2009-09-03T03:30:00Z,27.8903,-94.0367,4.0,3.820287947,70.90068071,4.97,'11111222,11111222,11111222' 
TABS,ioos:station:wmo:42046:1,2009-09-03T04:00:00Z,27.8903,-94.0367,4.0,3.961376024,57.47299745,5.13,'11111222,11111222,11111222' 
TABS,ioos:station:wmo:42046:1,2009-09-03T04:30:00Z,27.8903,-94.0367,4.0,3.734621801,67.48597923,5.09,'11111222,11111222,11111222' 
TABS,ioos:station:wmo:42046:1,2009-09-03T05:00:00Z,27.8903,-94.0367,4.0,3.615314647,79.96408112,4.61,'11111222,11111222,11111222' 
TABS,ioos:station:wmo:42046:1,2009-09-03T05:30:00Z,27.8903,-94.0367,4.0,3.504069063,83.28020551,4.91,'11111222,11111222,11111222' 
TABS,ioos:station:wmo:42046:1,2009-09-03T06:00:00Z,27.8903,-94.0367,4.0,4.111447434,72.4460753,5.51,'11111222,11111222,11111222' 
TABS,ioos:station:wmo:42046:1,2009-09-03T06:30:00Z,27.8903,-94.0367,4.0,4.050938163,80.04897566,5.58,'11111222,11111222,11111222' 
TABS,ioos:station:wmo:42046:1,2009-09-03T07:00:00Z,27.8903,-94.0367,4.0,2.802034975,53.41603902,4.55,'11111222,11111222,11111222' 
TABS,ioos:station:wmo:42046:1,2009-09-03T07:30:00Z,27.8903,-94.0367,4.0,2.382981326,40.57491021,4.2,'11111222,11111222,11111222' 
TABS,ioos:station:wmo:42046:1,2009-09-03T08:00:00Z,27.8903,-94.0367,4.0,3.407359682,41.5494456,4.47,'11111222,11111222,11111222' 
TABS,ioos:station:wmo:42046:1,2009-09-03T08:30:00Z,27.8903,-94.0367,4.0,2.133775996,31.97663509,3.32,'11111222,11111222,11111222' 
TABS,ioos:station:wmo:42046:1,2009-09-03T09:00:00Z,27.8903,-94.0367,4.0,2.79594349,7.811084013,4.35,'11111222,11111222,11111222' 
TABS,ioos:station:wmo:42046:1,2009-09-03T09:30:00Z,27.8903,-94.0367,4.0,3.136941185,8.801477282,4.37,'11111222,11111222,11111222' 
TABS,ioos:station:wmo:42046:1,2009-09-03T10:00:00Z,27.8903,-94.0367,4.0,3.143055838,353.0556753,4.87,'11111222,11111222,11111222' 
TABS,ioos:station:wmo:42046:1,2009-09-03T10:30:00Z,27.8903,-94.0367,4.0,4.059421141,24.29183361,5.33,'11111222,11111222,11111222' 
TABS,ioos:station:wmo:42046:1,2009-09-03T11:00:00Z,27.8903,-94.0367,4.0,2.770415131,4.969518648,3.75,'11111222,11111222,11111222' 
TABS,ioos:station:wmo:42046:1,2009-09-03T11:30:00Z,27.8903,-94.0367,4.0,2.840915345,16.7762646,4.85,'11111222,11111222,11111222' 
TABS,ioos:station:wmo:42046:1,2009-09-03T12:00:00Z,27.8903,-94.0367,4.0,3.155724956,14.87269495,4.74,'11111222,11111222,11111222' 
TABS,ioos:station:wmo:42046:1,2009-09-03T12:30:00Z,27.8903,-94.0367,4.0,3.750546627,18.8211693,5.61,'11111222,11111222,11111222' 
TABS,ioos:station:wmo:42046:1,2009-09-03T13:00:00Z,27.8903,-94.0367,4.0,3.928218426,11.45271985,5.28,'11111222,11111222,11111222' 
TABS,ioos:station:wmo:42046:1,2009-09-03T13:30:00Z,27.8903,-94.0367,4.0,3.799473648,21.29709379,5.47,'11111222,11111222,11111222' 
TABS,ioos:station:wmo:42046:1,2009-09-03T14:00:00Z,27.8903,-94.0367,4.0,3.916797161,12.08430157,5.68,'11111222,11111222,11111222' 
TABS,ioos:station:wmo:42046:1,2009-09-03T14:30:00Z,27.8903,-94.0367,4.0,3.630110191,11.27874168,5.15,'11111222,11111222,11111222' 
TABS,ioos:station:wmo:42046:1,2009-09-03T15:00:00Z,27.8903,-94.0367,4.0,3.898525362,22.94745392,5.25,'11111222,11111222,11111222' 
TABS,ioos:station:wmo:42046:1,2009-09-03T15:30:00Z,27.8903,-94.0367,4.0,3.855230214,7.751550569,4.82,'11111222,11111222,11111222' 
TABS,ioos:station:wmo:42046:1,2009-09-03T16:00:00Z,27.8903,-94.0367,4.0,3.954554336,6.387966153,5.6,'11111222,11111222,11111222' 
TABS,ioos:station:wmo:42046:1,2009-09-03T16:30:00Z,27.8903,-94.0367,4.0,4.156500932,28.29114303,5.3,'11111222,11111222,11111222' 
TABS,ioos:station:wmo:42046:1,2009-09-03T17:00:00Z,27.8903,-94.0367,4.0,3.775248336,25.41087542,5.01,'11111222,11111222,11111222' 
TABS,ioos:station:wmo:42046:1,2009-09-03T17:30:00Z,27.8903,-94.0367,4.0,4.078001962,36.9258007,5.76,'11111222,11111222,11111222' 
TABS,ioos:station:wmo:42046:1,2009-09-03T18:00:00Z,27.8903,-94.0367,4.0,4.009600978,45.70700203,5.75,'11111222,11111222,11111222' 
TABS,ioos:station:wmo:42046:1,2009-09-03T18:30:00Z,27.8903,-94.0367,4.0,4.409410391,47.48124929,5.78,'11111222,11111222,11111222' 
TABS,ioos:station:wmo:42046:1,2009-09-03T19:00:00Z,27.8903,-94.0367,4.0,3.938641898,45.30827547,4.92,'11111222,11111222,11111222' 
TABS,ioos:station:wmo:42046:1,2009-09-03T19:30:00Z,27.8903,-94.0367,4.0,3.630936518,55.43424752,4.99,'11111222,11111222,11111222' 
TABS,ioos:station:wmo:42046:1,2009-09-03T20:00:00Z,27.8903,-94.0367,4.0,3.98151981,54.71291262,5.23,'11111222,11111222,11111222' 
TABS,ioos:station:wmo:42046:1,2009-09-03T20:30:00Z,27.8903,-94.0367,4.0,3.70314731,64.05734426,4.88,'11111222,11111222,11111222' 
TABS,ioos:station:wmo:42046:1,2009-09-03T21:00:00Z,27.8903,-94.0367,4.0,3.430131193,63.50929096,4.75,'11111222,11111222,11111222' 
TABS,ioos:station:wmo:42046:1,2009-09-03T21:30:00Z,27.8903,-94.0367,4.0,3.872880065,63.30226775,5.17,'11111222,11111222,11111222' 
TABS,ioos:station:wmo:42046:1,2009-09-03T22:00:00Z,27.8903,-94.0367,4.0,4.417838838,71.11353588,5.69,'11111222,11111222,11111222' 
TABS,ioos:station:wmo:42046:1,2009-09-03T22:30:00Z,27.8903,-94.0367,4.0,4.475321218,57.87213428,5.54,'11111222,11111222,11111222' 
TABS,ioos:station:wmo:42046:1,2009-09-03T23:00:00Z,27.8903,-94.0367,4.0,4.632893264,76.77325294,6.03,'11111222,11111222,11111222' 
TABS,ioos:station:wmo:42046:1,2009-09-03T23:30:00Z,27.8903,-94.0367,4.0,4.2467517,79.82749702,5.27,'11111222,11111222,11111222' 
TABS,ioos:station:wmo:42046:1,2009-09-04T00:00:00Z,27.8903,-94.0367,4.0,3.814079181,80.33970859,5.18,'11111222,11111222,11111222' 
TABS,ioos:station:wmo:42046:1,2009-09-04T00:30:00Z,27.8903,-94.0367,4.0,2.921095685,91.56977205,4.02,'11111222,11111222,11111222' 
TABS,ioos:station:wmo:42046:1,2009-09-04T01:00:00Z,27.8903,-94.0367,4.0,3.372195131,102.6766307,4.49,'11111222,11111222,11111222' 
TABS,ioos:station:wmo:42046:1,2009-09-04T01:30:00Z,27.8903,-94.0367,4.0,2.828091229,103.4961226,3.94,'11111222,11111222,11111222' 
TABS,ioos:station:wmo:42046:1,2009-09-04T02:00:00Z,27.8903,-94.0367,4.0,2.170368632,125.814211,3.37,'11111222,11111222,11111222' 
TABS,ioos:station:wmo:42046:1,2009-09-04T02:30:00Z,27.8903,-94.0367,4.0,1.811353085,117.2727277,3.03,'11111222,11111222,11111222' 
TABS,ioos:station:wmo:42046:1,2009-09-04T03:00:00Z,27.8903,-94.0367,4.0,1.16090482,107.0305379,2.59,'11111222,11111222,11111222' 
TABS,ioos:station:wmo:42046:1,2009-09-04T03:30:00Z,27.8903,-94.0367,4.0,1.588080602,148.9127778,2.48,'11111222,11111222,11111222' 
TABS,ioos:station:wmo:42046:1,2009-09-04T04:00:00Z,27.8903,-94.0367,4.0,0.813203542,134.5021052,1.89,'11111222,11111222,11111222' 
TABS,ioos:station:wmo:42046:1,2009-09-04T04:30:00Z,27.8903,-94.0367,4.0,1.317004176,156.7445499,2.6,'11111222,11111222,11111222' 
TABS,ioos:station:wmo:42046:1,2009-09-04T05:00:00Z,27.8903,-94.0367,4.0,1.590125781,113.3408949,2.6,'11111222,11111222,11111222' 
TABS,ioos:station:wmo:42046:1,2009-09-04T05:30:00Z,27.8903,-94.0367,4.0,2.074608397,160.866612,3.27,'11111222,11111222,11111222' 
TABS,ioos:station:wmo:42046:1,2009-09-04T06:00:00Z,27.8903,-94.0367,4.0,2.05080472,163.8629716,3.24,'11111222,11111222,11111222' 
TABS,ioos:station:wmo:42046:1,2009-09-04T06:30:00Z,27.8903,-94.0367,4.0,2.875447791,167.7523967,3.98,'11111222,11111222,11111222' 
TABS,ioos:station:wmo:42046:1,2009-09-04T07:00:00Z,27.8903,-94.0367,4.0,2.49545587,153.3325411,3.73,'11111222,11111222,11111222' 
TABS,ioos:station:wmo:42046:1,2009-09-04T07:30:00Z,27.8903,-94.0367,4.0,1.862713075,160.8844038,2.62,'11111222,11111222,11111222' 
TABS,ioos:station:wmo:42046:1,2009-09-04T08:00:00Z,27.8903,-94.0367,4.0,0.680073525,162.8975215,1.7,'11111222,11111222,11111222' 
TABS,ioos:station:wmo:42046:1,2009-09-04T08:30:00Z,27.8903,-94.0367,4.0,0.771038261,87.02585495,1.53,'11111222,11111222,11111222' 
TABS,ioos:station:wmo:42046:1,2009-09-04T09:00:00Z,27.8903,-94.0367,4.0,0.801560977,93.57674693,1.68,'11111222,11111222,11111222' 
TABS,ioos:station:wmo:42046:1,2009-09-04T09:30:00Z,27.8903,-94.0367,4.0,0.17,90.00042092,1.16,'11111222,11111222,11111222' 
TABS,ioos:station:wmo:42046:1,2009-09-04T10:00:00Z,27.8903,-94.0367,4.0,0.75,53.12976765,1.68,'11111222,11111222,11111222' 
TABS,ioos:station:wmo:42046:1,2009-09-04T10:30:00Z,27.8903,-94.0367,4.0,0.64899923,123.6904097,1.47,'11111222,11111222,11111222' 
TABS,ioos:station:wmo:42046:1,2009-09-04T11:00:00Z,27.8903,-94.0367,4.0,0.95005263,89.3964893,1.96,'11111222,11111222,11111222' 
TABS,ioos:station:wmo:42046:1,2009-09-04T11:30:00Z,27.8903,-94.0367,4.0,0.664078309,71.56467337,1.66,'11111222,11111222,11111222' 
TABS,ioos:station:wmo:42046:1,2009-09-04T12:00:00Z,27.8903,-94.0367,4.0,0.96150923,63.43459003,2.15,'11111222,11111222,11111222' 
TABS,ioos:station:wmo:42046:1,2009-09-04T12:30:00Z,27.8903,-94.0367,4.0,1.520526225,35.36216874,2.46,'11111222,11111222,11111222' 
TABS,ioos:station:wmo:42046:1,2009-09-04T13:00:00Z,27.8903,-94.0367,4.0,2.346167087,52.44596463,3.38,'11111222,11111222,11111222' 
TABS,ioos:station:wmo:42046:1,2009-09-04T13:30:00Z,27.8903,-94.0367,4.0,3.020761493,40.70385385,4.25,'11111222,11111222,11111222' 
TABS,ioos:station:wmo:42046:1,2009-09-04T14:00:00Z,27.8903,-94.0367,4.0,3.240941221,49.37920413,4.58,'11111222,11111222,11111222' 
TABS,ioos:station:wmo:42046:1,2009-09-04T14:30:00Z,27.8903,-94.0367,4.0,3.070390855,33.17221652,4.42,'11111222,11111222,11111222' 
TABS,ioos:station:wmo:42046:1,2009-09-04T15:00:00Z,27.8903,-94.0367,4.0,2.960709374,29.76860448,4.03,'11111222,11111222,11111222' 
TABS,ioos:station:wmo:42046:1,2009-09-04T15:30:00Z,27.8903,-94.0367,4.0,2.754650613,41.90960271,3.88,'11111222,11111222,11111222' 
TABS,ioos:station:wmo:42046:1,2009-09-04T16:00:00Z,27.8903,-94.0367,4.0,2.861625412,50.24537233,3.96,'11111222,11111222,11111222' 
TABS,ioos:station:wmo:42046:1,2009-09-04T16:30:00Z,27.8903,-94.0367,4.0,1.937937047,46.254133,3.01,'11111222,11111222,11111222' 
TABS,ioos:station:wmo:42046:1,2009-09-04T17:00:00Z,27.8903,-94.0367,4.0,3.000149996,40.53884648,3.99,'11111222,11111222,11111222' 
TABS,ioos:station:wmo:42046:1,2009-09-04T17:30:00Z,27.8903,-94.0367,4.0,2.935523803,46.51800856,3.89,'11111222,11111222,11111222' 
TABS,ioos:station:wmo:42046:1,2009-09-04T18:00:00Z,27.8903,-94.0367,4.0,2.635469598,55.04326125,3.72,'11111222,11111222,11111222' 
TABS,ioos:station:wmo:42046:1,2009-09-04T18:30:00Z,27.8903,-94.0367,4.0,3.184462278,57.30767135,4.16,'11111222,11111222,11111222' 